SL-12 DEB, 27805

Orbit data source: Space-Track

SL-12 DEB, 27805 is space debris originally from a launch on Thu, 30 Jul 1992 UTC launched from the Tyuratam Missile And Space Complex (TTMTR). Debris objects in space refer to the collection of defunct objects orbiting the Earth. Examples of debris include non-operational satellites, rocket bodies, and fragments generated from explosions, collisions, or faulty payload assembly.

Loading next visibility...
Identifier
27805, 1992-047L
Orbit
Active
Country
Flag of CISCIS
Related business
Manufacturer
Unknown
Mission
Spacecraft
Bus & Motor
Unknown
Mass
Unknown
Launch date (UTC)
1992-07-30 (33 years ago)
Launch vehicle
Unknown
Launch site
Tyuratam Missile And Space Complex (TTMTR)
Object type
Payload
Rocket body
Debris
Shape & HBR
Unknown shape, 0.1 m
Radar Cross Section
Small (<0.1 m²)

Expand to show TLE details & history
Last TLE update: 1 day ago

TLE from 1 day ago
0 SL-12 DEB
1 27805U 92047L   25348.22151373  .00014845  00000-0  78725-2 0  9993
2 27805  65.2016 292.5528 4219579  74.6306 327.2315  6.80218544512403
Epoch: 2025-12-14T05:18Z
TLE epoch observation values (Epoch: 2025-12-14T05:18:58.786Z)
Latitude
0.00005°
Longitude
129.67034°
Altitude
2,315.634 km
Speed
7.605 km/s
True Right ascension
19h 30m 12s
True Declination
0° 00' 00"
Sunlit
Object was in daylight at epoch
Visualization orbit readout
Latitude
Unknown
Longitude
Unknown
Altitude
Unknown
Speed
Unknown
Apparent Right ascension
Unknown
Apparent Declination
Unknown
Sunlit
N/A
Visualization observer readout
Local Sidereal Time
15:09:08
Azimuth
Unknown
Elevation
Unknown
Doppler factor
Unknown
Orbital elements
Apogee altitude
10,351.227 km
Perigee altitude
422.54 km
Semi-major axis
11,765.02 km
Eccentricity
0.42196
Inclination
65.2016°
RAAN
292.5528°
Arg. of periapsis
74.6306°
True anomaly
285.46885°
Mean anomaly
327.2315°
Eccentric anomaly
308.24372°
Mean motion
1.7008 °/min
Orbital period
211.66 mins
BSTAR
0.0078725
Loading maneuver chart data...
Computing Atmospheric mass density...
Loading historical data...
Loading historical data...
Loading historical data...
Loading historical data...
Loading historical data...
Loading historical data...
Loading historical data...

Documentation

Showing up to 5 results
|